Location: Arcones
(41.1182°N, 3.7238°W)
Time: 19:51:16
(UTC+00:00)

Cosmos 2263 Rocket - Pass Details

Date: 11 December 2025
Orbit: 821 x 849 km, 71.0° (Epoch: 12 January)

Event Time Altitude Azimuth Distance (km) Brightness Sun altitude
Rises 18:21:00 0° 338° (NNW) 3,408 5.4 -17.2°
Reaches altitude 10° 18:23:29 10° 342° (NNW) 2,472 4.7 -17.7°
Maximum altitude 18:29:08 64° 64° (ENE) 935 2.1 -18.7°
Drops below altitude 10° 18:34:45 10° 146° (SE) 2,466 4.4 -19.7°
Sets 18:37:13 0° 149° (SSE) 3,397 5.2 -20.2°
